Weather History for Iron Mountain, MI

Change the Weather History Date:

Tuesday, February 5, 2013

  Actual Average Record
Temperature  
Mean Temperature 7 °F -  
Max Temperature 21 °F 23 °F 56 °F (1991)
Min Temperature -7 °F 0 °F -19 °F (1989)
Degree Days  
Heating Degree Days 58    
Moisture  
Dew Point 4 °F    
Average Humidity 77    
Maximum Humidity 92    
Minimum Humidity 60    
Precipitation  
Precipitation 0.00 in - - ()
Sea Level Pressure  
Sea Level Pressure 29.78 in    
Wind  
Wind Speed 4 mph (WNW)    
Max Wind Speed 17 mph    
Max Gust Speed 24 mph    
Visibility 7 miles    
Events Snow    
Averages and records for this station are not official NWS values.
T = Trace of Precipitation, MM = Missing Value Source: NWS Daily Summary

Daily Weather History Graph

Daily Weather History Graph

Search for Another Location

Airport:

Trip Planner

Search our weather history database for the weather conditions in past years. The results will help you decide how hot, cold, wet, or windy it might be!

Date:

Astronomy

Feb. 05, 2013 Rise Set
Actual Time 7:08 AM CST 5:04 PM CST
Civil Twilight 6:37 AM CST 5:36 PM CST
Nautical Twilight 6:02 AM CST 6:11 PM CST
Astronomical Twilight 5:27 AM CST 6:46 PM CST
Moon 2:56 AM CST (2/5) 12:15 PM CST (2/5)
Length of Visible Light 10h 58m
Length of Day
9h 55m
Waning Crescent, 26% of the Moon is Illuminated
Feb 5
Waning Crescent
Feb 10
New
Feb 17
First Quarter
Feb 25
Full
Mar 4
Last Quarter

Hourly Weather History & Observations

Time (CST) Temp. Windchill Dew Point Humidity Pressure Visibility Wind Dir Wind Speed Gust Speed Precip Events Conditions
12:54 AM -7.1 °F - -11.9 °F 79% 29.87 in 10.0 mi Calm Calm - N/A   Mostly Cloudy
1:54 AM -2.9 °F - -8.0 °F 79% 29.85 in 10.0 mi Calm Calm - N/A   Overcast
2:54 AM -0.0 °F - -4.0 °F 83% 29.80 in 10.0 mi Calm Calm - N/A   Overcast
3:40 AM 6.8 °F -3.5 °F -2.2 °F 67% 29.69 in 2.0 mi SSE 5.8 mph - 0.00 in Snow Light Snow
3:51 AM 6.8 °F -2.0 °F -0.4 °F 72% 29.68 in 7.0 mi SE 4.6 mph - 0.00 in Snow Light Snow
3:54 AM 6.1 °F -0.9 °F -2.0 °F 69% 29.76 in 9.0 mi SE 3.5 mph - 0.00 in   Overcast
4:07 AM 6.8 °F -2.0 °F -0.4 °F 72% 29.68 in 1.8 mi SE 4.6 mph - 0.00 in Snow Light Snow
4:28 AM 6.8 °F -0.1 °F 1.4 °F 79% 29.68 in 1.0 mi SSE 3.5 mph - 0.00 in Snow Light Snow
4:54 AM 6.1 °F -2.8 °F 1.9 °F 83% 29.75 in 1.2 mi SE 4.6 mph - 0.00 in Snow Light Snow
5:28 AM 6.8 °F -2.0 °F 1.4 °F 79% 29.65 in 3.0 mi SE 4.6 mph - 0.00 in Snow Light Snow
5:51 AM 5.0 °F -5.6 °F 1.4 °F 85% 29.64 in 2.5 mi SE 5.8 mph - 0.00 in Snow Light Snow
6:27 AM 5.0 °F -5.6 °F 1.4 °F 85% 29.62 in 3.0 mi SE 5.8 mph - 0.00 in Snow Light Snow
6:34 AM 5.0 °F -5.6 °F 1.4 °F 85% 29.62 in 3.0 mi SE 5.8 mph - 0.00 in Snow Light Snow
6:54 AM 6.1 °F -0.9 °F 1.9 °F 83% 29.73 in 9.0 mi SE 3.5 mph - 0.00 in   Overcast
7:54 AM 8.1 °F - 3.9 °F 83% 29.73 in 3.0 mi Calm Calm - 0.00 in Snow Light Snow
8:06 AM 8.6 °F 2.0 °F 3.2 °F 79% 29.63 in 2.5 mi SSE 3.5 mph - 0.00 in Snow Light Snow
8:30 AM 8.6 °F 0.1 °F 5.0 °F 85% 29.63 in 1.5 mi South 4.6 mph - 0.00 in Snow Light Snow
8:54 AM 10.0 °F 3.6 °F 6.1 °F 84% 29.73 in 2.0 mi South 3.5 mph - 0.00 in Snow Light Snow
9:23 AM 10.4 °F - 6.8 °F 85% 29.64 in 1.5 mi Calm Calm - 0.00 in Snow Light Snow
9:34 AM 10.4 °F - 6.8 °F 85% 29.64 in 2.5 mi Calm Calm - 0.00 in Snow Light Snow
9:41 AM 10.4 °F - 6.8 °F 85% 29.64 in 4.0 mi Calm Calm - 0.00 in Snow Light Snow
10:16 AM 12.2 °F - 8.6 °F 85% 29.65 in 7.0 mi Calm Calm - 0.00 in   Overcast
10:54 AM 15.1 °F - 9.0 °F 77% 29.75 in 10.0 mi Calm Calm - 0.00 in   Overcast
11:54 AM 19.0 °F 5.6 °F 10.0 °F 68% 29.75 in 10.0 mi NNW 13.8 mph - 0.00 in   Overcast
12:34 PM 19.4 °F 5.0 °F 10.4 °F 68% 29.67 in 10.0 mi NNW 16.1 mph 20.7 mph 0.00 in   Overcast
12:54 PM 19.9 °F 5.2 °F 10.0 °F 65% 29.77 in 10.0 mi WNW 17.3 mph 21.9 mph 0.00 in   Overcast
1:54 PM 21.0 °F 7.6 °F 10.0 °F 63% 29.79 in 10.0 mi NNW 15.0 mph - N/A   Overcast
2:03 PM 21.2 °F 8.3 °F 10.4 °F 63% 29.71 in 10.0 mi NNW 13.8 mph - N/A   Overcast
2:54 PM 21.0 °F 8.6 °F 10.0 °F 63% 29.82 in 10.0 mi NNW 12.7 mph - N/A   Overcast
3:54 PM 21.0 °F 8.1 °F 9.0 °F 60% 29.84 in 10.0 mi NNW 13.8 mph - N/A   Overcast
4:54 PM 21.0 °F 7.6 °F 12.9 °F 71% 29.87 in 3.0 mi NW 15.0 mph - 0.00 in Snow Light Snow
5:20 PM 19.4 °F 8.6 °F 12.2 °F 74% 29.83 in 10.0 mi NNW 9.2 mph - 0.00 in   Overcast
5:27 PM 19.4 °F 6.6 °F 12.2 °F 74% 29.82 in 10.0 mi NNW 12.7 mph - 0.00 in   Overcast
5:34 PM 19.4 °F 7.9 °F 12.2 °F 74% 29.83 in 5.0 mi NNW 10.4 mph - 0.00 in Snow Light Snow
5:54 PM 19.0 °F 9.0 °F 12.9 °F 77% 29.93 in 9.0 mi NW 8.1 mph - 0.00 in Snow Light Snow
6:05 PM 19.4 °F 4.5 °F 10.4 °F 68% 29.86 in 9.0 mi NNW 17.3 mph 23.0 mph 0.00 in   Overcast
6:54 PM 16.0 °F 2.3 °F 5.0 °F 62% 29.98 in 10.0 mi NW 12.7 mph 24.2 mph 0.00 in   Mostly Cloudy
7:54 PM 9.0 °F 0.6 °F 3.0 °F 77% 30.00 in 10.0 mi NW 4.6 mph - N/A   Clear
8:54 PM 3.9 °F -3.4 °F 1.0 °F 88% 30.02 in 10.0 mi WNW 3.5 mph - N/A   Mostly Cloudy
9:52 PM 1.4 °F - -0.4 °F 92% 29.96 in 10.0 mi Calm Calm - N/A   Overcast
9:54 PM 1.9 °F - -0.9 °F 88% 30.05 in 10.0 mi Calm Calm - N/A   Overcast
10:54 PM -0.0 °F - -4.0 °F 83% 30.06 in 7.0 mi Calm Calm - 0.00 in   Overcast
11:54 PM -0.9 °F - -5.1 °F 83% 30.08 in 10.0 mi Calm Calm - 0.00 in   Mostly Cloudy